Location: Niedergestelen
(46.3129°N, 7.7822°E)
Time: 06:30:39
(UTC+00:00)

Cosmos 1821 Rocket - Pass Details

Date: 01 December 2020
Orbit: 946 x 1004 km, 82.9° (Epoch: 18 January)

Event Time Altitude Azimuth Distance (km) Brightness Sun altitude
Rises 17:29:12 0° 353° (N) 3,674 7.0 -17.5°
Reaches altitude 10° 17:31:45 10° 356° (N) 2,731 6.2 -18.0°
Maximum altitude 17:37:58 65° 79° (ENE) 1,075 3.9 -19.0°
Drops below altitude 10° 17:44:15 10° 161° (SSE) 2,751 6.3 -20.1°
Sets 17:46:48 0° 164° (SSE) 3,702 7.0 -20.5°
